Danbury, CT

2:35 PM EDT on June 19, 2018 (GMT -0400)
Danbury Municipal

Weather History for KDXR - August, 2017

Change the Weather History Date:

Sunday, August 13, 2017

  Actual Average Record
Temperature  
Mean Temperature 72 °F -  
Max Temperature 82 °F 80 °F 96 °F (2005)
Min Temperature 64 °F 59 °F 43 °F (1957)
Cooling Degree Days 8    
Growing Degree Days 22 (Base 50)    
Moisture  
Dew Point 65 °F    
Average Humidity 82    
Maximum Humidity 100    
Minimum Humidity 45    
Precipitation  
Precipitation 0.00 in - - ()
Sea Level Pressure  
Sea Level Pressure 29.92 in    
Wind  
Wind Speed 3 mph (West)    
Max Wind Speed 13 mph    
Max Gust Speed -    
Visibility 7 miles    
Events      
Averages and records for this station are not official NWS values.
T = Trace of Precipitation, MM = Missing Value Source: NWS Daily Summary

Daily Weather History Graph

Daily Weather History Graph

Search for Another Location

Airport or City:

Astronomy

Aug. 13, 2017 Rise Set
Actual Time 6:01 AM EDT 7:55 PM EDT
Civil Twilight 5:31 AM EDT 8:25 PM EDT
Nautical Twilight 4:54 AM EDT 9:01 PM EDT
Astronomical Twilight 4:15 AM EDT 9:40 PM EDT
Moon 11:24 PM EDT (8/13) 12:01 PM EDT (8/13)
Length of Visible Light 14h 54m
Length of Day
13h 54m
Waning Gibbous, 65% of the Moon is Illuminated
Aug 13
Waning Gibbous
Aug 14
Last Quarter
Aug 21
New
Aug 29
First Quarter
Sep 6
Full

Hourly Weather History & Observations

Time (EDT) Temp. Heat Index Dew Point Humidity Pressure Visibility Wind Dir Wind Speed Gust Speed Precip Events Conditions
12:01 AM 72.0 °F - 69.1 °F 91% 29.90 in 10.0 mi South 4.6 mph - N/A   Mostly Cloudy
12:53 AM 72.0 °F - 70.0 °F 93% 29.88 in 10.0 mi South 3.5 mph - N/A   Overcast
1:30 AM 72.0 °F - 70.0 °F 93% 29.89 in 9.0 mi South 4.6 mph - N/A   Mostly Cloudy
1:53 AM 72.0 °F - 70.0 °F 93% 29.87 in 9.0 mi South 3.5 mph - N/A   Mostly Cloudy
2:34 AM 72.0 °F - 70.0 °F 93% 29.88 in 9.0 mi Calm Calm - N/A   Overcast
2:43 AM 72.0 °F - 70.0 °F 93% 29.88 in 8.0 mi Calm Calm - N/A   Overcast
2:53 AM 71.1 °F - 69.1 °F 93% 29.87 in 8.0 mi WSW 3.5 mph - N/A   Mostly Cloudy
3:53 AM 70.0 °F - 69.1 °F 97% 29.86 in 6.0 mi WSW 3.5 mph - N/A   Partly Cloudy
4:53 AM 70.0 °F - 68.0 °F 93% 29.86 in 6.0 mi WSW 4.6 mph - N/A   Scattered Clouds
5:19 AM 68.0 °F - 66.9 °F 96% 29.87 in 1.8 mi Calm Calm - N/A   Clear
5:29 AM 68.0 °F - 66.9 °F 96% 29.88 in 2.5 mi Calm Calm - N/A   Partly Cloudy
5:41 AM 68.0 °F - 66.9 °F 96% 29.88 in 1.2 mi Calm Calm - N/A   Mostly Cloudy
5:47 AM 69.8 °F - 68.0 °F 94% 29.89 in 2.0 mi Calm Calm - N/A   Mostly Cloudy
5:48 AM 69.8 °F - 68.0 °F 94% 29.89 in 3.0 mi Calm Calm - N/A   Mostly Cloudy
5:53 AM 70.0 °F - 68.0 °F 93% 29.88 in 4.0 mi Calm Calm - N/A   Mostly Cloudy
6:05 AM 69.1 °F - 68.0 °F 96% 29.89 in 3.0 mi SSW 3.5 mph - N/A   Scattered Clouds
6:18 AM 69.1 °F - 66.9 °F 93% 29.90 in 2.5 mi Calm Calm - N/A   Partly Cloudy
6:26 AM 69.1 °F - 66.9 °F 93% 29.90 in 3.0 mi Calm Calm - N/A   Clear
6:34 AM 66.9 °F - 66.9 °F 100% 29.90 in 1.8 mi WSW 3.5 mph - N/A   Clear
6:47 AM 68.0 °F - 68.0 °F 100% 29.91 in 3.0 mi Calm Calm - N/A   Clear
6:48 AM 68.0 °F - 68.0 °F 100% 29.89 in 3.0 mi Calm Calm - N/A   Clear
6:55 AM 68.0 °F - 66.9 °F 96% 29.91 in 4.0 mi Calm Calm - N/A   Clear
7:53 AM 73.0 °F - 66.9 °F 81% 29.91 in 9.0 mi Calm Calm - N/A   Clear
8:53 AM 73.9 °F - 64.0 °F 71% 29.93 in 10.0 mi NNW 5.8 mph - N/A   Partly Cloudy
9:53 AM 75.0 °F - 61.0 °F 62% 29.94 in 10.0 mi North 8.1 mph - N/A   Scattered Clouds
10:53 AM 78.1 °F - 62.1 °F 58% 29.94 in 10.0 mi NNE 12.7 mph - N/A   Scattered Clouds
11:53 AM 79.0 °F - 60.1 °F 52% 29.95 in 10.0 mi NNW 11.5 mph - N/A   Scattered Clouds
12:53 PM 79.0 °F - 62.1 °F 56% 29.95 in 10.0 mi NW 6.9 mph - N/A   Scattered Clouds
1:53 PM 80.1 °F 81.1 °F 61.0 °F 52% 29.95 in 10.0 mi NW 9.2 mph - N/A   Scattered Clouds
2:53 PM 81.0 °F 81.3 °F 59.0 °F 47% 29.96 in 10.0 mi NW 9.2 mph - N/A   Scattered Clouds
3:53 PM 81.0 °F 81.3 °F 59.0 °F 47% 29.96 in 10.0 mi WNW 8.1 mph - N/A   Scattered Clouds
4:53 PM 81.0 °F 81.1 °F 57.9 °F 45% 29.96 in 10.0 mi WNW 8.1 mph - N/A   Scattered Clouds
5:53 PM 80.1 °F 80.7 °F 59.0 °F 48% 29.97 in 10.0 mi North 8.1 mph - N/A   Partly Cloudy
6:53 PM 79.0 °F - 60.1 °F 52% 29.98 in 10.0 mi North 5.8 mph - N/A   Clear
7:53 PM 72.0 °F - 64.0 °F 76% 29.99 in 10.0 mi Calm Calm - N/A   Clear
8:53 PM 68.0 °F - 64.0 °F 87% 30.01 in 10.0 mi WSW 4.6 mph - N/A   Clear
9:53 PM 66.9 °F - 63.0 °F 87% 30.02 in 10.0 mi SW 3.5 mph - N/A   Mostly Cloudy
10:53 PM 64.9 °F - 63.0 °F 93% 30.03 in 10.0 mi WSW 3.5 mph - N/A   Partly Cloudy
11:53 PM 64.0 °F - 62.1 °F 93% 30.04 in 10.0 mi Calm Calm - N/A   Clear